sat.trackr.live / text

‹ back to catalog

BEIDOU-3 M11 (C25)

NORAD 43603 · 2018-067B

PAYLOAD ACTIVE UNKNOWN

§ Identity

Operator
Country
PRC
Launch date
2018-08-24
Launch site
XICLF
Launch vehicle
Mass (kg)
RCS (m²)

Purposes: nav

External: N2YO · Heavens-Above · Gunter

§ Orbital elements

Epoch: 2026-09-08T19:26:09.064032Z

Period
773.25 min
Inclination
54.1760°
Eccentricity
0.0005167
Mean motion
1.86226953 rev/d
Perigee alt
21,514.0 km
Apogee alt
21,542.9 km
Semi-major
27,906.6 km
B*
0.0000e+0
RAAN
178.1696°
Arg perigee
24.0989°
Mean anomaly
335.9127°
Rev number
5,470

§ Raw data

BEIDOU-3 M11 (C25)1 43603U 18067B   26251.80982713 -.00000032  00000+0  00000+0 0  99962 43603  54.1760 178.1696 0005167  24.0989 335.9127  1.86226953 54708

JSON: /api/v1/satellites/43603 · /tle

For live sub-satellite position, see the globe view (requires WebGL).

§ Visibility from observer

Set your observer location to see the next 7 days of passes ≥ 10°. The values pass through the URL so the page stays shareable.

No JS? Fill the form by hand. The geolocation button needs JavaScript.